Weather Underground® Station Historical Data


Station Historical Data For Bruceton, TN. (K3JAE's Weather Station - KTNBRUCE2)
Daily Summary for:  February 09, 2018 Units:  Metric    English   Both
« Previous Day
Next Day »
Daily Weekly Monthly Yearly Custom
  High: Low: Average:
Temperature: 17.3 °C -1.8 °C 8.1 °C
Dew Point: 8.2 °C -3.6 °C 1.1 °C
Humidity: 89% 35% 65%
Wind Speed: 31.5km/h 0km/h 5.5km/h
Wind Gust: 31.5km/h - -
Wind- - South
Pressure: 1028.3 hPa 1017.8 hPa -
Precipitation: 9.4 mm    
Historical Graphs
 
 
Tabular Data for:  February 09, 2018
Time Temperature Dew Point Pressure Wind Wind Speed Wind Gust Humidity Rainfall Rate (Hourly) solar Conditions
00:03 -0.6 °C -3.3 °C 1028.3 hPa SE 1.9 km/h 1.9 km/h 82% 0 mm 0.0 W/m2 CLR
00:08 -0.6 °C -3.3 °C 1028 hPa SE 3.7 km/h 3.7 km/h 82% 0 mm 0.0 W/m2 CLR
00:13 -0.4 °C -3.1 °C 1028 hPa SSE 3.7 km/h 3.7 km/h 82% 0 mm 0.0 W/m2 CLR
00:18 -0.2 °C -2.9 °C 1028 hPa SSE 5.6 km/h 5.6 km/h 82% 0 mm 0.0 W/m2 CLR
00:23 0.1 °C -2.9 °C 1028 hPa SSE 1.9 km/h   80% 0 mm 0.0 W/m2 CLR
00:28 0.3 °C -2.8 °C 1028 hPa Calm     80% 0 mm 0.0 W/m2 CLR
00:33 0.4 °C -2.8 °C 1028 hPa Calm     79% 0 mm 0.0 W/m2 CLR
00:38 0.4 °C -2.8 °C 1028 hPa Calm     79% 0 mm 0.0 W/m2 CLR
00:43 0.3 °C -2.9 °C 1027.7 hPa Calm     79% 0 mm 0.0 W/m2 CLR
00:48 0.3 °C -2.9 °C 1027.7 hPa Calm     79% 0 mm 0.0 W/m2 CLR
00:53 0.2 °C -2.8 °C 1027.7 hPa Calm     80% 0 mm 0.0 W/m2 CLR
00:58 0.1 °C -3 °C 1027.7 hPa Calm     80% 0 mm 0.0 W/m2 CLR
01:03 -0.1 °C -3.2 °C 1027.7 hPa Calm     80% 0 mm 0.0 W/m2 CLR
01:08 -0.3 °C -3.3 °C 1027.7 hPa Calm     80% 0 mm 0.0 W/m2 CLR
01:13 -0.4 °C -3.3 °C 1027.7 hPa Calm     81% 0 mm 0.0 W/m2 CLR
01:18 -0.4 °C -3.2 °C 1027.7 hPa Calm     82% 0 mm 0.0 W/m2 CLR
01:23 -0.5 °C -3.2 °C 1027.7 hPa Calm     82% 0 mm 0.0 W/m2 CLR
01:28 -0.6 °C -3.1 °C 1027.7 hPa Calm     83% 0 mm 0.0 W/m2 CLR
01:33 -0.6 °C -3.2 °C 1027.3 hPa Calm     83% 0 mm 0.0 W/m2 CLR
01:38 -0.6 °C -3.2 °C 1027.3 hPa Calm     83% 0 mm 0.0 W/m2 CLR
01:43 -0.7 °C -3.3 °C 1027.3 hPa Calm     83% 0 mm 0.0 W/m2 CLR
01:48 -0.8 °C -3.2 °C 1027 hPa Calm     84% 0 mm 0.0 W/m2 CLR
01:53 -0.9 °C -3.3 °C 1027 hPa Calm     84% 0 mm 0.0 W/m2 CLR
01:58 -1.1 °C -3.4 °C 1027 hPa Calm     84% 0 mm 0.0 W/m2 CLR
02:03 -1.2 °C -3.4 °C 1027 hPa Calm     85% 0 mm 0.0 W/m2 CLR
02:08 -1.2 °C -3.4 °C 1027 hPa Calm     85% 0 mm 0.0 W/m2 CLR
02:13 -1.3 °C -3.3 °C 1027 hPa Calm     86% 0 mm 0.0 W/m2 CLR
02:18 -1.3 °C -3.4 °C 1026.6 hPa Calm     86% 0 mm 0.0 W/m2 CLR
02:23 -1.4 °C -3.4 °C 1026.6 hPa Calm     86% 0 mm 0.0 W/m2 CLR
02:28 -1.4 °C -3.4 °C 1026.6 hPa Calm     86% 0 mm 0.0 W/m2 CLR
02:33 -1.4 °C -3.5 °C 1026.6 hPa Calm     86% 0 mm 0.0 W/m2 CLR
02:38 -1.4 °C -3.3 °C 1026.6 hPa Calm     87% 0 mm 0.0 W/m2 CLR
02:43 -1.4 °C -3.3 °C 1026.6 hPa Calm     87% 0 mm 0.0 W/m2 CLR
02:48 -1.5 °C -3.4 °C 1026.6 hPa Calm     87% 0 mm 0.0 W/m2 CLR
02:53 -1.6 °C -3.4 °C 1026.3 hPa Calm     87% 0 mm 0.0 W/m2 CLR
02:58 -1.6 °C -3.4 °C 1026.3 hPa Calm     87% 0 mm 0.0 W/m2 CLR
03:03 -1.5 °C -3.4 °C 1026.6 hPa Calm     87% 0 mm 0.0 W/m2 CLR
03:08 -1.4 °C -3.3 °C 1026.6 hPa Calm     87% 0 mm 0.0 W/m2 CLR
03:13 -1.4 °C -3.3 °C 1026.3 hPa Calm     87% 0 mm 0.0 W/m2 CLR
03:18 -1.4 °C -3.3 °C 1026.3 hPa Calm     87% 0 mm 0.0 W/m2 CLR
03:23 -1.4 °C -3.3 °C 1026.3 hPa Calm     87% 0 mm 0.0 W/m2 CLR
03:28 -1.3 °C -3.2 °C 1026.3 hPa Calm     87% 0 mm 0.0 W/m2 CLR
03:33 -1.3 °C -3.3 °C 1026 hPa Calm     86% 0 mm 0.0 W/m2 CLR
03:38 -1.3 °C -3.3 °C 1026 hPa Calm     86% 0 mm 0.0 W/m2 CLR
03:43 -1.3 °C -3.4 °C 1026 hPa Calm     86% 0 mm 0.0 W/m2 CLR
03:48 -1.3 °C -3.2 °C 1026 hPa Calm     87% 0 mm 0.0 W/m2 CLR
03:53 -1.3 °C -3.2 °C 1026 hPa SSE 1.9 km/h 1.9 km/h 87% 0 mm 0.0 W/m2 CLR
03:58 -1.4 °C -3.4 °C 1026 hPa Calm     86% 0 mm 0.0 W/m2 CLR
04:03 -1.4 °C -3.5 °C 1026 hPa Calm     86% 0 mm 0.0 W/m2 CLR
04:08 -1.5 °C -3.4 °C 1026 hPa Calm     87% 0 mm 0.0 W/m2 CLR
04:13 -1.6 °C -3.4 °C 1026 hPa Calm     87% 0 mm 0.0 W/m2 CLR
04:18 -1.6 °C -3.5 °C 1026 hPa Calm     87% 0 mm 0.0 W/m2 CLR
04:23 -1.7 °C -3.6 °C 1026 hPa Calm     87% 0 mm 0.0 W/m2 CLR
04:28 -1.7 °C -3.4 °C 1026 hPa Calm     88% 0 mm 0.0 W/m2 CLR
04:33 -1.8 °C -3.5 °C 1026 hPa SSE 1.9 km/h 1.9 km/h 88% 0 mm 0.0 W/m2 CLR
04:38 -1.8 °C -3.5 °C 1026 hPa Calm     88% 0 mm 0.0 W/m2 CLR
04:43 -1.8 °C -3.5 °C 1026 hPa Calm     88% 0 mm 0.0 W/m2 CLR
04:48 -1.8 °C -3.5 °C 1026 hPa Calm     88% 0 mm 0.0 W/m2 CLR
04:53 -1.7 °C -3.4 °C 1026 hPa Calm     88% 0 mm 0.0 W/m2 CLR
04:54 -1.8 °C -3.5 °C 1026 hPa Calm     88% 0 mm 0.0 W/m2 CLR
04:59 -1.7 °C -3.4 °C 1026 hPa Calm     88% 0 mm 0.0 W/m2 CLR
05:04 -1.6 °C -3.3 °C 1026.3 hPa Calm     88% 0 mm 0.0 W/m2 CLR
05:09 -1.4 °C -3.2 °C 1026.3 hPa Calm     88% 0 mm 0.0 W/m2 CLR
05:14 -1.3 °C -3.1 °C 1026.3 hPa Calm     88% 0 mm 0.0 W/m2 CLR
05:19 -1.3 °C -3.1 °C 1026.3 hPa Calm     88% 0 mm 0.0 W/m2 CLR
05:24 -1.3 °C -3 °C 1026.3 hPa Calm     88% 0 mm 0.0 W/m2 CLR
05:29 -1.3 °C -3.2 °C 1026.3 hPa SSE 1.9 km/h 1.9 km/h 87% 0 mm 0.0 W/m2 CLR
05:34 -1.3 °C -3.1 °C 1026.3 hPa Calm     88% 0 mm 0.0 W/m2 CLR
05:39 -1.3 °C -3.1 °C 1026.3 hPa Calm     88% 0 mm 0.0 W/m2 CLR
05:44 -1.4 °C -3.1 °C 1026.3 hPa Calm     88% 0 mm 0.0 W/m2 CLR
05:49 -1.4 °C -3.1 °C 1026.3 hPa Calm     88% 0 mm 0.0 W/m2 CLR
05:54 -1.4 °C -3.1 °C 1026.3 hPa Calm     88% 0 mm 0.0 W/m2 CLR
05:59 -1.4 °C -3.1 °C 1026.3 hPa Calm     88% 0 mm 0.0 W/m2 CLR
06:04 -1.3 °C -3.1 °C 1026.3 hPa SSE 1.9 km/h   88% 0 mm 0.0 W/m2 CLR
06:09 -1.4 °C -3.1 °C 1026.3 hPa Calm     88% 0 mm 0.0 W/m2 CLR
06:14 -1.4 °C -3.2 °C 1026.6 hPa Calm     88% 0 mm 0.0 W/m2 CLR
06:19 -1.5 °C -3.2 °C 1026.6 hPa Calm     88% 0 mm 0.0 W/m2 CLR
06:24 -1.5 °C -3.2 °C 1026.6 hPa Calm     88% 0 mm 0.0 W/m2 CLR
06:29 -1.5 °C -3.2 °C 1026.6 hPa Calm     88% 0 mm 0.0 W/m2 CLR
06:34 -1.5 °C -3.2 °C 1026.6 hPa SSE 1.6 km/h 1.6 km/h 88% 0 mm 0.0 W/m2 CLR
06:36 -1.4 °C -3.2 °C 1026.6 hPa SSE 1.9 km/h 1.9 km/h 88% 0 mm 0.0 W/m2 CLR
06:41 -1.4 °C -3.2 °C 1026.6 hPa Calm     88% 0 mm 0.0 W/m2 CLR
06:46 -1.4 °C -3.2 °C 1026.6 hPa Calm     88% 0 mm 5.0 W/m2 CLR
06:51 -1.4 °C -3.1 °C 1026.6 hPa Calm     88% 0 mm 7.0 W/m2 CLR
06:56 -1.4 °C -3.1 °C 1026.6 hPa Calm     88% 0 mm 11.0 W/m2 CLR
07:01 -1.4 °C -3.2 °C 1026.6 hPa SSE 1.9 km/h 1.9 km/h 88% 0 mm 16.0 W/m2 CLR
07:06 -1.5 °C -3.2 °C 1026.6 hPa Calm     88% 0 mm 18.0 W/m2 CLR
07:11 -1.6 °C -3.3 °C 1026.6 hPa Calm     88% 0 mm 23.0 W/m2 CLR
07:16 -1.6 °C -3.3 °C 1026.6 hPa Calm     88% 0 mm 25.0 W/m2 CLR
07:21 -1.6 °C -3.1 °C 1026.6 hPa Calm     89% 0 mm 26.0 W/m2 CLR
07:26 -1.5 °C -3.1 °C 1026.6 hPa Calm     89% 0 mm 28.0 W/m2 CLR
07:31 -1.4 °C -3 °C 1026.6 hPa Calm     89% 0 mm 37.0 W/m2 CLR
07:41 -1.2 °C -2.7 °C 1026.6 hPa SSE 3.2 km/h 3.2 km/h 89% 0 mm 47.0 W/m2 CLR
07:46 -0.9 °C -2.7 °C 1026.6 hPa SSE 1.9 km/h 1.9 km/h 88% 0 mm 63.0 W/m2 CLR
07:51 -0.7 °C -2.3 °C 1026.6 hPa SSE 1.9 km/h 1.9 km/h 89% 0 mm 81.0 W/m2 CLR
07:56 -0.4 °C -2.2 °C 1026.6 hPa SSE 1.9 km/h 1.9 km/h 88% 0 mm 90.0 W/m2 CLR
08:01 -0.2 °C -1.9 °C 1026.6 hPa SSE 3.7 km/h 3.7 km/h 88% 0 mm 125.0 W/m2 CLR
08:06 0.1 °C -1.7 °C 1027 hPa SSE 3.7 km/h 3.7 km/h 88% 0 mm 165.0 W/m2 CLR
08:11 0.3 °C -1.5 °C 1026.6 hPa SSE 3.7 km/h 3.7 km/h 88% 0 mm 127.0 W/m2 CLR
08:16 0.6 °C -1.2 °C 1026.6 hPa SSE 3.7 km/h 3.7 km/h 88% 0 mm 162.0 W/m2 CLR
08:21 1.1 °C -0.7 °C 1026.6 hPa SSE 3.7 km/h 3.7 km/h 88% 0 mm 127.0 W/m2 CLR
08:26 1.5 °C -0.4 °C 1026.6 hPa SSE 3.7 km/h 3.7 km/h 87% 0 mm 163.0 W/m2 CLR
08:31 2 °C -0.1 °C 1027 hPa SSE 3.7 km/h 3.7 km/h 86% 0 mm 183.0 W/m2 CLR
08:36 2.6 °C -0.1 °C 1026.6 hPa SSE 5.6 km/h 5.6 km/h 83% 0 mm 139.0 W/m2 CLR
08:41 3.2 °C 0.1 °C 1026.6 hPa SSE 5.6 km/h 5.6 km/h 80% 0 mm 236.0 W/m2 CLR
08:46 3.8 °C 0.5 °C 1026.6 hPa South 5.6 km/h 5.6 km/h 79% 0 mm 214.0 W/m2 CLR
08:51 4.4 °C 0.8 °C 1026.6 hPa South 3.7 km/h 3.7 km/h 77% 0 mm 142.0 W/m2 CLR
08:56 4.9 °C 0.9 °C 1026.6 hPa South 4.8 km/h 4.8 km/h 75% 0 mm 223.0 W/m2 CLR
09:01 5.5 °C 1.1 °C 1026.6 hPa South 7.4 km/h 7.4 km/h 73% 0 mm 160.0 W/m2 CLR
09:06 6 °C 1.1 °C 1026.6 hPa South 5.6 km/h 5.6 km/h 71% 0 mm 144.0 W/m2 CLR
09:11 6.4 °C 1.2 °C 1026.6 hPa South 1.9 km/h 1.9 km/h 69% 0 mm 251.0 W/m2 CLR
09:16 6.8 °C 1.1 °C 1026.6 hPa South 3.7 km/h 3.7 km/h 67% 0 mm 276.0 W/m2 CLR
09:21 7.3 °C 1.4 °C 1026.6 hPa South 5.6 km/h 5.6 km/h 66% 0 mm 123.0 W/m2 CLR
09:26 7.8 °C 1.4 °C 1026.6 hPa SSW 8 km/h 8 km/h 64% 0 mm 207.0 W/m2 CLR
09:31 8.4 °C 1.1 °C 1026.6 hPa South 8 km/h 8 km/h 60% 0 mm 172.0 W/m2 CLR
09:36 8.9 °C 1.1 °C 1026.6 hPa SW 14.8 km/h 14.8 km/h 58% 0 mm 311.0 W/m2 CLR
09:41 9.4 °C 1.1 °C 1026.3 hPa SE 14.8 km/h 14.8 km/h 56% 0 mm 323.0 W/m2 CLR
09:46 9.8 °C 0.9 °C 1026.3 hPa South 14.8 km/h 14.8 km/h 54% 0 mm 371.0 W/m2 CLR
09:51 10 °C 0.6 °C 1026 hPa SSE 9.3 km/h 9.3 km/h 52% 0 mm 199.0 W/m2 CLR
09:56 10.3 °C 1.2 °C 1026 hPa SSW 14.5 km/h 14.5 km/h 53% 0 mm 183.0 W/m2 CLR
10:01 10.6 °C 1.1 °C 1026 hPa SE 9.3 km/h 9.3 km/h 52% 0 mm 306.0 W/m2 CLR
10:06 10.8 °C 0.8 °C 1026 hPa SSW 11.1 km/h 11.1 km/h 50% 0 mm 227.0 W/m2 CLR
10:11 11.1 °C 1.6 °C 1026 hPa SSE 5.6 km/h 5.6 km/h 52% 0 mm 353.0 W/m2 CLR
10:16 11.4 °C 1.1 °C 1026 hPa SSW 18.5 km/h 18.5 km/h 49% 0 mm 204.0 W/m2 CLR
10:21 11.6 °C 1.2 °C 1026 hPa SSW 14.8 km/h 14.8 km/h 49% 0 mm 216.0 W/m2 CLR
10:26 11.9 °C 1.2 °C 1026 hPa South 9.3 km/h 9.3 km/h 48% 0 mm 197.0 W/m2 CLR
10:31 12.3 °C 1.3 °C 1025.6 hPa SW 18.5 km/h 18.5 km/h 47% 0 mm 221.0 W/m2 CLR
10:36 12.3 °C 1.1 °C 1025.6 hPa SW 20.4 km/h 20.4 km/h 46% 0 mm 538.0 W/m2 CLR
10:41 12.3 °C 1 °C 1025.6 hPa SE 20.4 km/h 20.4 km/h 46% 0 mm 522.0 W/m2 CLR
10:46 12.4 °C 1.4 °C 1025.6 hPa SW 16.1 km/h 16.1 km/h 47% 0 mm 612.0 W/m2 CLR
10:51 12.6 °C 1.3 °C 1025.3 hPa SW 22.2 km/h 22.2 km/h 46% 0 mm 541.0 W/m2 CLR
10:56 12.8 °C 1.4 °C 1025.3 hPa SSE 14.8 km/h 14.8 km/h 46% 0 mm 612.0 W/m2 CLR
10:59 13 °C 1.3 °C 1025.3 hPa SSW 29.6 km/h 29.6 km/h 45% 0 mm 622.0 W/m2 CLR
11:04 13.1 °C 1.1 °C 1024.9 hPa SSW 25.9 km/h 25.9 km/h 44% 0 mm 599.0 W/m2 CLR
11:09 13.3 °C 1.9 °C 1024.9 hPa SW 22.5 km/h 22.5 km/h 46% 0 mm 619.0 W/m2 CLR
11:14 13.6 °C 1.6 °C 1024.9 hPa SSW 18.5 km/h 18.5 km/h 44% 0 mm 642.0 W/m2 CLR
11:19 13.8 °C 1.4 °C 1024.6 hPa South 16.7 km/h 16.7 km/h 43% 0 mm 606.0 W/m2 CLR
11:24 14 °C 1.9 °C 1024.6 hPa SSW 14.8 km/h 14.8 km/h 44% 0 mm 612.0 W/m2 CLR
11:29 14.1 °C 1.3 °C 1024.6 hPa SW 24.1 km/h 24.1 km/h 42% 0 mm 652.0 W/m2 CLR
11:34 14.2 °C 1.4 °C 1024.6 hPa SW 22.2 km/h 22.2 km/h 42% 0 mm 621.0 W/m2 CLR
11:39 14.3 °C 0.9 °C 1024.3 hPa South 31.5 km/h 31.5 km/h 40% 0 mm 638.0 W/m2 CLR
11:44 14.5 °C 1.4 °C 1024.3 hPa SSW 25.9 km/h 25.9 km/h 41% 0 mm 603.0 W/m2 CLR
11:49 14.5 °C 1.7 °C 1024.3 hPa SSW 22.2 km/h 22.2 km/h 42% 0 mm 643.0 W/m2 CLR
11:54 14.5 °C 1.7 °C 1023.9 hPa SSW 18.5 km/h 18.5 km/h 42% 0 mm 608.0 W/m2 CLR
11:59 14.9 °C 1.7 °C 1023.9 hPa SSW 22.2 km/h 22.2 km/h 41% 0 mm 619.0 W/m2 CLR
12:04 14.9 °C 2.1 °C 1023.9 hPa SW 14.5 km/h 14.5 km/h 42% 0 mm 599.0 W/m2 CLR
12:09 15.2 °C 2 °C 1023.6 hPa SSW 16.7 km/h 16.7 km/h 41% 0 mm 652.0 W/m2 CLR
12:14 15.3 °C 1.7 °C 1023.6 hPa SSW 25.9 km/h 25.9 km/h 40% 0 mm 645.0 W/m2 CLR
12:19 15.3 °C 1.1 °C 1023.6 hPa SW 24.1 km/h 24.1 km/h 38% 0 mm 656.0 W/m2 CLR
12:24 15.2 °C 1.3 °C 1023.2 hPa South 31.5 km/h 31.5 km/h 39% 0 mm 657.0 W/m2 CLR
12:29 15.6 °C 1.7 °C 1023.2 hPa SSW 27.8 km/h 27.8 km/h 39% 0 mm 652.0 W/m2 CLR
12:34 15.5 °C 2.3 °C 1022.9 hPa WSW 13 km/h 13 km/h 41% 0 mm 657.0 W/m2 CLR
12:39 15.6 °C 2.1 °C 1022.9 hPa South 13 km/h 13 km/h 40% 0 mm 661.0 W/m2 CLR
12:44 16 °C 2.4 °C 1022.6 hPa SW 13 km/h 13 km/h 40% 0 mm 661.0 W/m2 CLR
12:49 16.3 °C 2.3 °C 1022.6 hPa SSW 14.8 km/h 14.8 km/h 39% 0 mm 657.0 W/m2 CLR
12:54 16.5 °C 2.1 °C 1022.6 hPa South 22.2 km/h 22.2 km/h 38% 0 mm 664.0 W/m2 CLR
12:59 16.4 °C 2.4 °C 1022.2 hPa SW 13 km/h 13 km/h 39% 0 mm 649.0 W/m2 CLR
13:04 16.6 °C 2.2 °C 1022.2 hPa SW 14.8 km/h 14.8 km/h 38% 0 mm 568.0 W/m2 FEW
13:09 16.8 °C 2.7 °C 1022.2 hPa SSW 9.3 km/h 9.3 km/h 39% 0 mm 606.0 W/m2 FEW
13:14 16.9 °C 2.4 °C 1021.9 hPa SE 13 km/h 13 km/h 38% 0 mm 617.0 W/m2 FEW
13:19 16.8 °C 2.4 °C 1021.9 hPa SSW 14.8 km/h 14.8 km/h 38% 0 mm 626.0 W/m2 FEW
13:24 16.9 °C 2.9 °C 1021.9 hPa West 13 km/h 13 km/h 39% 0 mm 599.0 W/m2 FEW
13:29 17.3 °C 2.4 °C 1021.6 hPa SSW 11.1 km/h 11.1 km/h 37% 0 mm 608.0 W/m2 FEW
13:34 17.3 °C 2.1 °C 1021.6 hPa SSW 9.3 km/h 9.3 km/h 36% 0 mm 603.0 W/m2 FEW
13:39 17.2 °C 1.9 °C 1021.2 hPa WSW 20.4 km/h 20.4 km/h 36% 0 mm 617.0 W/m2 FEW
13:44 17.1 °C 1.5 °C 1021.2 hPa SW 14.8 km/h 14.8 km/h 35% 0 mm 114.0 W/m2 FEW
13:49 16.8 °C 1.2 °C 1021.2 hPa SW 13 km/h 13 km/h 35% 0 mm 258.0 W/m2 FEW
13:54 16.5 °C 1.7 °C 1021.2 hPa SW 6.4 km/h 6.4 km/h 37% 0 mm 267.0 W/m2 FEW
13:59 16.4 °C 2.1 °C 1021.2 hPa South 8 km/h 8 km/h 38% 0 mm 237.0 W/m2 FEW
14:04 16.4 °C 1.7 °C 1021.2 hPa SSW 13 km/h 13 km/h 37% 0 mm 174.0 W/m2 OVC
14:09 16.3 °C 1.9 °C 1021.2 hPa WSW 14.8 km/h 14.8 km/h 38% 0 mm 199.0 W/m2 OVC
14:14 16.2 °C 1.8 °C 1021.2 hPa SW 7.4 km/h 7.4 km/h 38% 0 mm 185.0 W/m2 OVC
14:19 16.2 °C 1.8 °C 1021.2 hPa SW 11.1 km/h 11.1 km/h 38% 0 mm 174.0 W/m2 OVC
14:24 16.2 °C 1.9 °C 1021.2 hPa SW 13 km/h 13 km/h 38% 0 mm 193.0 W/m2 OVC
14:30 16.2 °C 2.6 °C 1020.9 hPa SSW 5.6 km/h 5.6 km/h 40% 0 mm 176.0 W/m2 OVC
14:35 16.2 °C 2.2 °C 1021.2 hPa SW 9.3 km/h 9.3 km/h 39% 0 mm 169.0 W/m2 OVC
14:40 16.2 °C 2.2 °C 1020.9 hPa SSW 14.8 km/h 14.8 km/h 39% 0 mm 163.0 W/m2 OVC
14:45 16.2 °C 1.8 °C 1020.9 hPa SSW 11.1 km/h 11.1 km/h 38% 0 mm 148.0 W/m2 OVC
14:50 16.1 °C 2.5 °C 1020.9 hPa SW 6.4 km/h 6.4 km/h 40% 0 mm 148.0 W/m2 OVC
14:55 16.1 °C 3.2 °C 1020.9 hPa SW 8 km/h 8 km/h 42% 0 mm 192.0 W/m2 OVC
15:00 16.2 °C 2.2 °C 1020.9 hPa SW 7.4 km/h 7.4 km/h 39% 0 mm 216.0 W/m2 OVC
15:05 16.3 °C 2.7 °C 1020.5 hPa WSW 7.4 km/h 7.4 km/h 40% 0 mm 195.0 W/m2 OVC
15:10 16.3 °C 2.7 °C 1020.5 hPa SSW 16.7 km/h 16.7 km/h 40% 0 mm 174.0 W/m2 OVC
15:15 16.3 °C 2.3 °C 1020.9 hPa SW 16.7 km/h 16.7 km/h 39% 0 mm 165.0 W/m2 OVC
15:20 16.3 °C 2.3 °C 1020.9 hPa SW 14.8 km/h 14.8 km/h 39% 0 mm 158.0 W/m2 OVC
15:25 16.3 °C 2.3 °C 1020.5 hPa SSW 11.1 km/h 11.1 km/h 39% 0 mm 137.0 W/m2 OVC
15:30 16.3 °C 2.3 °C 1020.5 hPa SSW 9.7 km/h 9.7 km/h 39% 0 mm 128.0 W/m2 OVC
15:35 16.2 °C 1.9 °C 1020.5 hPa SSW 14.8 km/h 14.8 km/h 38% 0 mm 132.0 W/m2 OVC
15:40 16.3 °C 2.3 °C 1020.5 hPa SSW 14.8 km/h 14.8 km/h 39% 0 mm 139.0 W/m2 OVC
15:45 16.2 °C 2.2 °C 1020.5 hPa SSW 18.5 km/h 18.5 km/h 39% 0 mm 146.0 W/m2 OVC
15:50 16.3 °C 2.3 °C 1020.5 hPa SE 13 km/h 13 km/h 39% 0 mm 144.0 W/m2 OVC
15:55 16.3 °C 2.7 °C 1020.2 hPa SW 12.9 km/h 12.9 km/h 40% 0 mm 127.0 W/m2 OVC
16:00 16.3 °C 2.7 °C 1020.2 hPa WSW 14.8 km/h 14.8 km/h 40% 0 mm 120.0 W/m2 OVC
16:05 16.2 °C 2.9 °C 1020.2 hPa SW 14.8 km/h 14.8 km/h 41% 0 mm 86.0 W/m2 OVC
16:10 16.1 °C 2.8 °C 1020.2 hPa South 14.8 km/h 14.8 km/h 41% 0 mm 62.0 W/m2 OVC
16:15 16 °C 3.1 °C 1020.2 hPa SW 9.7 km/h 9.7 km/h 42% 0 mm 67.0 W/m2 OVC
16:20 15.9 °C 2.7 °C 1020.2 hPa SW 13 km/h 13 km/h 41% 0 mm 62.0 W/m2 OVC
16:25 15.9 °C 2.7 °C 1020.2 hPa SW 11.1 km/h 11.1 km/h 41% 0 mm 63.0 W/m2 OVC
16:30 15.9 °C 3 °C 1020.2 hPa SSE 5.6 km/h 5.6 km/h 42% 0 mm 53.0 W/m2 OVC
16:35 15.8 °C 2.9 °C 1020.2 hPa SW 11.3 km/h 11.3 km/h 42% 0 mm 40.0 W/m2 OVC
16:40 15.8 °C 2.9 °C 1020.2 hPa South 9.3 km/h 9.3 km/h 42% 0 mm 37.0 W/m2 OVC
16:45 15.8 °C 3.2 °C 1020.2 hPa South 3.2 km/h 3.2 km/h 43% 0 mm 37.0 W/m2 OVC
16:50 15.7 °C 3.4 °C 1020.2 hPa SSW 5.6 km/h 5.6 km/h 44% 0 mm 32.0 W/m2 OVC
16:55 15.6 °C 3.4 °C 1020.2 hPa SSW 7.4 km/h 7.4 km/h 44% 0 mm 30.0 W/m2 OVC
17:00 15.5 °C 3.3 °C 1019.9 hPa SSW 5.6 km/h 5.6 km/h 44% 0 mm 26.0 W/m2 OVC
17:05 15.4 °C 3.2 °C 1019.9 hPa South 3.2 km/h 3.2 km/h 44% 0 mm 19.0 W/m2 BKN
17:10 15.3 °C 3.4 °C 1019.9 hPa South 1.9 km/h   45% 0 mm 18.0 W/m2 BKN
17:15 15.3 °C 3.4 °C 1019.9 hPa Calm     45% 0 mm 11.0 W/m2 BKN
17:20 15.2 °C 3.3 °C 1019.9 hPa Calm     45% 0 mm 7.0 W/m2 BKN
17:25 15.1 °C 3.2 °C 1019.9 hPa South 1.9 km/h 1.9 km/h 45% 0 mm 5.0 W/m2 BKN
17:30 14.9 °C 3.4 °C 1019.5 hPa South 1.9 km/h   46% 0 mm 0.0 W/m2 BKN
17:35 14.8 °C 3.6 °C 1019.5 hPa South 3.2 km/h 3.2 km/h 47% 0 mm 0.0 W/m2 BKN
17:40 14.6 °C 3.4 °C 1019.5 hPa SSE 3.7 km/h 3.7 km/h 47% 0 mm 0.0 W/m2 BKN
17:45 14.6 °C 3.4 °C 1019.9 hPa SSE 3.7 km/h 3.7 km/h 47% 0 mm 0.0 W/m2 BKN
17:50 14.5 °C 3.6 °C 1019.9 hPa SSE 1.9 km/h 1.9 km/h 48% 0 mm 0.0 W/m2 BKN
17:55 14.4 °C 3.5 °C 1019.9 hPa Calm     48% 0 mm 0.0 W/m2 BKN
18:00 14.2 °C 3.3 °C 1019.9 hPa SSE 3.7 km/h 3.7 km/h 48% 0 mm 0.0 W/m2 BKN
18:05 14.1 °C 3.5 °C 1019.9 hPa Calm     49% 0 mm 0.0 W/m2 OVC
18:10 13.9 °C 3.6 °C 1019.9 hPa SSE 3.7 km/h 3.7 km/h 50% 0 mm 0.0 W/m2 OVC
18:15 13.8 °C 3.6 °C 1019.9 hPa SSE 3.7 km/h 3.7 km/h 50% 0 mm 0.0 W/m2 OVC
18:20 13.8 °C 3.5 °C 1019.9 hPa SSE 1.9 km/h   50% 0 mm 0.0 W/m2 OVC
18:25 13.7 °C 3.8 °C 1019.9 hPa Calm     51% 0 mm 0.0 W/m2 OVC
18:30 13.7 °C 3.7 °C 1019.9 hPa SSE 1.9 km/h 1.9 km/h 51% 0 mm 0.0 W/m2 OVC
18:35 13.6 °C 3.9 °C 1019.9 hPa SSE 1.6 km/h 3.2 km/h 52% 0 mm 0.0 W/m2 OVC
18:40 13.6 °C 3.9 °C 1019.9 hPa Calm   4.8 km/h 52% 0 mm 0.0 W/m2 OVC
18:45 13.5 °C 3.8 °C 1019.9 hPa Calm     52% 0 mm 0.0 W/m2 OVC
18:50 13.5 °C 3.8 °C 1019.9 hPa Calm   1.6 km/h 52% 0 mm 0.0 W/m2 OVC
18:55 13.4 °C 4 °C 1019.9 hPa Calm   3.2 km/h 53% 0 mm 0.0 W/m2 OVC
19:00 13.3 °C 3.9 °C 1019.9 hPa SSE 1.9 km/h   53% 0 mm 0.0 W/m2 OVC
19:05 13.2 °C 3.8 °C 1019.9 hPa Calm     53% 0 mm 0.0 W/m2 SCT
19:10 13.1 °C 3.7 °C 1019.9 hPa SSE 1.9 km/h   53% 0 mm 0.0 W/m2 SCT
19:15 13.2 °C 3.8 °C 1019.9 hPa Calm   1 km/h 53% 0 mm 0.0 W/m2 SCT
19:20 13.1 °C 4 °C 1019.5 hPa Calm     54% 0 mm 0.0 W/m2 SCT
19:25 13.1 °C 4 °C 1019.5 hPa Calm   1.6 km/h 54% 0 mm 0.0 W/m2 SCT
19:27 13.1 °C 3.9 °C 1019.5 hPa Calm     54% 0 mm 0.0 W/m2 SCT
19:32 12.9 °C 4.1 °C 1019.5 hPa SSE 1.9 km/h   55% 0 mm 0.0 W/m2 SCT
19:37 12.8 °C 4 °C 1019.5 hPa SSE 1.9 km/h   55% 0 mm 0.0 W/m2 SCT
19:42 12.8 °C 3.9 °C 1019.5 hPa SSE 1.9 km/h 1.9 km/h 55% 0 mm 0.0 W/m2 SCT
19:47 12.7 °C 4.1 °C 1019.5 hPa Calm   0.2 km/h 56% 0 mm 0.0 W/m2 SCT
19:52 12.6 °C 4.1 °C 1019.5 hPa Calm     56% 0 mm 0.0 W/m2 SCT
19:57 12.5 °C 3.9 °C 1019.2 hPa SSE 1.9 km/h 1.9 km/h 56% 0 mm 0.0 W/m2 SCT
20:02 12.4 °C 4.1 °C 1019.2 hPa Calm     57% 0 mm 0.0 W/m2 SCT
20:07 12.3 °C 4.1 °C 1019.2 hPa Calm     57% 0 mm 0.0 W/m2 SCT
20:12 12.3 °C 4.1 °C 1019.2 hPa Calm     57% 0 mm 0.0 W/m2 SCT
20:17 12.4 °C 4.1 °C 1019.2 hPa Calm     57% 0 mm 0.0 W/m2 SCT
20:22 12.4 °C 4.1 °C 1019.2 hPa Calm     57% 0 mm 0.0 W/m2 SCT
20:27 12.4 °C 4.2 °C 1019.2 hPa Calm     57% 0 mm 0.0 W/m2 SCT
20:32 12.4 °C 4.3 °C 1019.2 hPa Calm     58% 0 mm 0.0 W/m2 SCT
20:37 12.3 °C 4.3 °C 1019.2 hPa Calm     58% 0 mm 0.0 W/m2 SCT
20:42 12.3 °C 4.5 °C 1019.2 hPa SSE 1.9 km/h 1.9 km/h 59% 0 mm 0.0 W/m2 SCT
20:47 12.2 °C 4.6 °C 1018.8 hPa SSE 1.9 km/h 1.9 km/h 60% 0 mm 0.0 W/m2 SCT
20:52 12.1 °C 4.3 °C 1019.2 hPa Calm     59% 0 mm 0.0 W/m2 SCT
20:57 12 °C 4.4 °C 1019.2 hPa Calm   1.1 km/h 60% 0 mm 0.0 W/m2 SCT
21:02 12 °C 4.4 °C 1019.2 hPa SSE 1.9 km/h 1.9 km/h 60% 0 mm 0.0 W/m2 OVC
21:07 12 °C 4.7 °C 1018.8 hPa SSE 1.9 km/h 1.9 km/h 61% 0 mm 0.0 W/m2 OVC
21:12 12 °C 4.7 °C 1018.8 hPa SSE 1.9 km/h   61% 0 mm 0.0 W/m2 OVC
21:17 12 °C 4.7 °C 1018.8 hPa Calm     61% 0 mm 0.0 W/m2 OVC
21:22 12.1 °C 4.8 °C 1019.2 hPa SSE 3.7 km/h 3.7 km/h 61% 0 mm 0.0 W/m2 OVC
21:27 12.2 °C 4.9 °C 1018.8 hPa Calm     61% 0 mm 0.0 W/m2 OVC
21:32 12.2 °C 5.2 °C 1018.8 hPa SSE 1.9 km/h   62% 0 mm 0.0 W/m2 OVC
21:37 12.2 °C 5.1 °C 1018.8 hPa Calm     62% 0 mm 0.0 W/m2 OVC
21:42 12.1 °C 5.1 °C 1018.8 hPa Calm     62% 0 mm 0.0 W/m2 OVC
21:47 12.1 °C 5 °C 1018.8 hPa Calm     62% 0 mm 0.0 W/m2 OVC
21:52 12 °C 5.2 °C 1019.2 hPa SSE 1.9 km/h   63% 0 mm 0.0 W/m2 OVC
21:57 12.2 °C 5.6 °C 1019.2 hPa SSE 5.6 km/h 5.6 km/h 64% 0 mm 0.0 W/m2 OVC
22:02 12.2 °C 6.3 °C 1018.8 hPa SSW 9.3 km/h 9.3 km/h 67% 0 mm 0.0 W/m2 OVC
22:07 12.1 °C 7.3 °C 1018.8 hPa SSW 5.6 km/h 5.6 km/h 73% 0.25 mm 0.0 W/m2 RA
22:12 11.8 °C 7.7 °C 1018.8 hPa SW 5.6 km/h 5.6 km/h 76% 0.76 mm 0.0 W/m2 RA
22:17 11.4 °C 7.9 °C 1018.8 hPa SSW 5.6 km/h 5.6 km/h 79% 1.27 mm 0.0 W/m2 +RA
22:22 11 °C 8.1 °C 1018.8 hPa SSW 3.7 km/h 3.7 km/h 82% 1.78 mm 0.0 W/m2 +RA
22:27 10.7 °C 8.1 °C 1019.2 hPa SSW 3.7 km/h 3.7 km/h 84% 2.54 mm 0.0 W/m2 +RA
22:32 10.4 °C 8.2 °C 1019.2 hPa Calm     86% 3.05 mm 0.0 W/m2 RA
22:37 10.3 °C 8.2 °C 1019.2 hPa SSW 1.9 km/h 1.9 km/h 87% 3.56 mm 0.0 W/m2 RA
22:42 10.2 °C 8.1 °C 1019.5 hPa SSW 3.7 km/h 3.7 km/h 87% 4.06 mm 0.0 W/m2 -RA
22:47 10 °C 7.9 °C 1019.5 hPa SSW 5.6 km/h 5.6 km/h 87% 4.83 mm 0.0 W/m2 -RA
22:52 9.9 °C 8.1 °C 1019.5 hPa Calm     88% 5.59 mm 0.0 W/m2 -RA
22:57 9.9 °C 8 °C 1018.8 hPa SSW 1.9 km/h 1.9 km/h 88% 6.35 mm 0.0 W/m2 -RA
23:02 9.8 °C 7.9 °C 1018.8 hPa SSW 3.7 km/h 3.7 km/h 88% 6.86 mm 0.0 W/m2 RA
23:07 9.8 °C 7.9 °C 1018.8 hPa SSW 3.7 km/h 3.7 km/h 88% 6.86 mm 0.0 W/m2 RA
23:12 9.7 °C 7.7 °C 1018.5 hPa SSW 1.9 km/h 1.9 km/h 87% 6.35 mm 0.0 W/m2 -RA
23:17 9.7 °C 7.6 °C 1018.5 hPa SSW 3.7 km/h 3.7 km/h 87% 5.84 mm 0.0 W/m2 -RA
23:22 9.7 °C 7.6 °C 1018.5 hPa SSW 1.9 km/h 1.9 km/h 87% 5.33 mm 0.0 W/m2 -RA
23:27 9.7 °C 7.6 °C 1018.5 hPa Calm     87% 4.83 mm 0.0 W/m2 -RA
23:32 9.7 °C 7.6 °C 1018.5 hPa Calm     87% 4.83 mm 0.0 W/m2 -RA
23:37 9.7 °C 7.6 °C 1018.5 hPa SSW 1.9 km/h   87% 4.57 mm 0.0 W/m2 -RA
23:42 9.7 °C 7.4 °C 1018.5 hPa SSW 4.8 km/h 4.8 km/h 86% 4.57 mm 0.0 W/m2 -RA
23:47 9.7 °C 7.4 °C 1018.5 hPa SSW 1.9 km/h 1.9 km/h 86% 4.32 mm 0.0 W/m2 -RA
23:52 9.7 °C 7.5 °C 1018.5 hPa SSW 1.9 km/h 1.9 km/h 86% 3.56 mm 0.0 W/m2 -RA
23:57 9.7 °C 7.5 °C 1017.8 hPa SSW 3.7 km/h 3.7 km/h 86% 3.05 mm 0.0 W/m2 -RA
Bruceton, TN. NWS Weather Forecast
Compliments of:  Weather Underground - 5.25 mb

Interesting Weather Facts
HURRICANE FACTS
1961 was the last time two Category 5 hurricanes formed in the same year.1960 was the last time two Category 5 hurricanes formed and eventually made U.S. land fall. 2005 has now matched that with Katrina and now Rita.